[[{"header":{"parameterUnit":"m.s-1","parameterCategory":2,"la1":30.2991,"la2":30.254,"lo1":-89.0895,"lo2":-89.0444,"dy":0.0017,"dx":0.0017,"nx":28,"ny":28,"refTime":"2026-02-05T09:00:00:Z","depth":"0","parameterNumber":2,"parameterNumberName":"U-component_of_CURRENTS"},"data":[0,0,0,0,0,0,0,0,0,0,0,0,0,0,0,0,0,0,0,0,0,0,0,0,0,0,0,0,0,0,0,0,0,0,0,0,0,0,0,0,0,0,0,0,0,0,0,0,0,0,0,0,0,0,0,0,0,0,0.1579,0.158,0,0.1537,0.1535,0.1534,0.1416,0.1414,0.1412,0.141,0.1098,0.1092,0.1085,0,0,0,0,0,0,0,0,0,0,0,0,0,0.1509,0.1511,0.1579,0.158,0.158,0.1537,0.1535,0.1534,0.1416,0.1414,0.1411,0.1409,0.11,0.1093,0.1085,0,0,0,0,0,0,0,0,0,0,0,0,0,0.1503,0.1511,0.1579,0.1521,0.1516,0.1537,0.1535,0.1534,0.1416,0.1414,0.1411,0.1408,0.1103,0.1093,0.1084,0.1079,0,0,0.1054,0.1049,0,0,0,0,0,0,0,0,0.1504,0.1505,0.153,0.1526,0.152,0.1485,0.1397,0.1371,0.1417,0.1446,0.141,0.1407,0.121,0.1191,0.1182,0.1064,0.1051,0.1053,0.1047,0.1043,0.104,0,0,0,0,0,0,0,0.1504,0.1506,0.1554,0.153,0.1524,0.1481,0.1477,0.1392,0.1333,0.1443,0.1437,0.1445,0.1204,0.1192,0.1173,0.1046,0.1053,0.1044,0.1038,0.1034,0.0944,0.0947,0,0,0,0,0,0,0.1532,0.1507,0.1556,0.1554,0.1514,0.1485,0.148,0.1493,0.134,0.1318,0.1448,0.144,0.121,0.1185,0.1161,0.1202,0.1043,0.1033,0.1028,0.094,0.0944,0.0948,0,0,0,0,0,0,0.153,0.1537,0.1558,0.1535,0.1535,0.1491,0.1505,0.1494,0.1483,0.1347,0.1318,0.1449,0.1207,0.1175,0.1095,0.1186,0.1029,0.102,0.0936,0.0941,0.0946,0.1246,0,0,0,0,0,0,0.1528,0.1536,0.1523,0.1537,0.1538,0.1577,0.1509,0.1495,0.1496,0.1485,0.1339,0.1308,0.1203,0.1111,0.1085,0.117,0.1012,0.0932,0.0938,0.0945,0.1232,0.1261,0.1286,0,0,0,0,0,0.1526,0.1521,0.1523,0.1527,0.1532,0.158,0.1576,0.1528,0.1499,0.1505,0.141,0.1312,0.1136,0.1105,0.1074,0.1158,0.0928,0.0936,0.0944,0.122,0.1255,0.1285,0,0,0,0,0,0,0.147,0.1511,0.1511,0.1515,0.1554,0.1563,0.1552,0.155,0.1487,0.1461,0.1332,0.1295,0.1281,0.1167,0.1137,0.1153,0.1027,0.1029,0.1247,0.1279,0.1305,0.1295,0.1004,0,0,0,0,0,0.1464,0.1474,0.1525,0.1529,0.1555,0.1566,0.1569,0.1565,0.1533,0.1504,0.1426,0.1338,0.1295,0.124,0.1176,0.1154,0.1114,0.1195,0.1222,0.1246,0.1219,0.128,0.1311,0.0974,0.0974,0.0974,0,0,0.1455,0.1468,0.1478,0.1519,0.1538,0.1592,0.1558,0.1591,0.1624,0.1476,0.147,0.143,0.1315,0.1319,0.1301,0.1224,0.1335,0.1256,0.1278,0.1235,0.1292,0.1324,0.1354,0.0979,0.0978,0.0978,0,0,0.1499,0.1457,0.1523,0.1544,0.1596,0.1596,0.1623,0.1668,0.1664,0.1672,0.161,0.1631,0.151,0.1503,0.1466,0.1597,0.1494,0.1574,0.1677,0.1741,0.177,0.1794,0.1853,0.188,0.1567,0.1568,0.1568,0,0.1512,0.1554,0.1548,0.1614,0.1608,0.1616,0.1679,0.1698,0.1711,0.1717,0.1686,0.1662,0.1613,0.1642,0.1709,0.1666,0.1654,0.1572,0.1781,0.1803,0.1823,0.1876,0.1902,0.1583,0.1581,0.158,0.1578,0,0.1626,0.1636,0.1667,0.1737,0.1734,0.1773,0.1804,0.183,0.1826,0.1851,0.19,0.1879,0.1847,0.1897,0.1832,0.1961,0.1899,0.1836,0.1708,0.1876,0.1921,0.1943,0.1605,0.16,0.1595,0.1591,0,0,0.1744,0.1759,0.1771,0.1759,0.1778,0.1784,0.184,0.1888,0.1915,0.1973,0.2022,0.208,0.2085,0.2046,0.2035,0.2113,0.2324,0.2033,0.2029,0.2108,0.2455,0.2478,0.2501,0.2287,0.2291,0.2294,0.2456,0,0.1854,0.1924,0.1916,0.1939,0.1941,0.1914,0.1946,0.197,0.1989,0.2041,0.2099,0.2133,0.2133,0.2148,0.2241,0.227,0.2379,0.2283,0.2259,0.2258,0.2274,0.2528,0.2478,0.2622,0.2476,0.2479,0.2482,0,0.1963,0.1971,0.2011,0.1947,0.1959,0.1983,0.195,0.1992,0.2064,0.2089,0.2156,0.2174,0.2305,0.2285,0.245,0.2373,0.244,0.2488,0.2493,0.2404,0.2321,0.2413,0.2664,0.2576,0.2513,0.251,0.2508,0,0.1916,0.1997,0.1986,0.1972,0.1966,0.1977,0.1975,0.2009,0.2039,0.2122,0.2173,0.2268,0.2345,0.2433,0.2545,0.2492,0.2725,0.2653,0.2751,0.2751,0.2644,0.2629,0.2809,0.2811,0.281,0.281,0.281,0,0.1907,0.1888,0.1974,0.1935,0.195,0.1942,0.1955,0.1986,0.2061,0.2111,0.2195,0.228,0.2389,0.2519,0.2586,0.2752,0.2763,0.2821,0.2819,0.2754,0.2748,0.2601,0.2475,0.2816,0.2815,0.2814,0.2812,0,0.1765,0.1821,0.1827,0.1886,0.19,0.1896,0.193,0.1963,0.2041,0.2119,0.2157,0.2325,0.249,0.2612,0.2781,0.2832,0.2908,0.3016,0.2938,0.2927,0.2904,0.2793,0.285,0.2837,0.3145,0.3147,0.3148,0,0.1705,0.17,0.1779,0.1814,0.1838,0.1852,0.1872,0.1931,0.1974,0.2145,0.22,0.2406,0.2546,0.2825,0.2953,0.311,0.2999,0.3148,0.3062,0.2957,0.2832,0.2726,0.2702,0.3061,0.3061,0.3062,0.3062,0,0.1648,0.1687,0.1715,0.1772,0.182,0.1821,0.1861,0.1894,0.1985,0.2076,0.224,0.2378,0.2677,0.2839,0.3071,0.3154,0.3012,0.3166,0.308,0.2823,0.2691,0.2657,0.2886,0.3068,0.3067,0.3067,0.3067,0.3067,0.17,0.1699,0.1784,0.1805,0.1844,0.1841,0.1825,0.19,0.1973,0.2103,0.2218,0.2398,0.2644,0.2979,0.3057,0.3142,0.3097,0.3095,0.2988,0.2909,0.2843,0.3101,0.3256,0.3257,0.3257,0.3258,0.3258,0,0.1782,0.1762,0.1813,0.1858,0.1853,0.1847,0.1864,0.186,0.1933,0.2068,0.2178,0.2386,0.2606,0.2796,0.2961,0.2939,0.291,0.2894,0.2707,0.2711,0.2979,0.2921,0.2982,0.2982,0.2982,0.2982,0.2982,0.2982,0.1851,0.1877,0.1846,0.1889,0.1875,0.1849,0.1831,0.1847,0.1922,0.2025,0.2115,0.2205,0.2417,0.2588,0.2645,0.2651,0.2514,0.2488,0.2483,0.2599,0.2608,0.2616,0.2542,0.2522,0.2521,0.2233,0.223,0.2227]},{"header":{"parameterUnit":"m.s-1","parameterCategory":2,"la1":30.2991,"la2":30.254,"lo1":-89.0895,"lo2":-89.0444,"dy":0.0017,"dx":0.0017,"nx":28,"ny":28,"refTime":"2026-02-05T09:00:00:Z","depth":"0","parameterNumber":3,"parameterNumberName":"V-component_of_CURRENTS"},"data":[0,0,0,0,0,0,0,0,0,0,0,0,0,0,0,0,0,0,0,0,0,0,0,0,0,0,0,0,0,0,0,0,0,0,0,0,0,0,0,0,0,0,0,0,0,0,0,0,0,0,0,0,0,0,0,0,0,0,0.0232,0.0233,0,0.0312,0.0313,0.0314,0.0368,0.0369,0.037,0.037,0.0304,0.0302,0.03,0,0,0,0,0,0,0,0,0,0,0,0,0,0.0215,0.0214,0.0231,0.0233,0.0234,0.0312,0.0313,0.0314,0.0368,0.0369,0.037,0.0371,0.0305,0.0303,0.03,0,0,0,0,0,0,0,0,0,0,0,0,0,0.0249,0.0214,0.0231,0.0272,0.0277,0.0312,0.0313,0.0314,0.0368,0.0369,0.037,0.0371,0.0306,0.0303,0.0299,0.026,0,0,0.0289,0.0287,0,0,0,0,0,0,0,0,0.0247,0.0249,0.0265,0.0269,0.0275,0.0333,0.0283,0.0289,0.0368,0.0331,0.037,0.0371,0.0301,0.0298,0.031,0.0257,0.0254,0.0288,0.0286,0.0285,0.0284,0,0,0,0,0,0,0,0.0244,0.0247,0.0261,0.0266,0.0272,0.0318,0.0322,0.0286,0.0305,0.0334,0.0339,0.0351,0.0303,0.0314,0.0309,0.0253,0.0289,0.0285,0.0283,0.0282,0.0264,0.0266,0,0,0,0,0,0,0.0233,0.0244,0.0259,0.0264,0.0266,0.0317,0.0322,0.0312,0.0309,0.0312,0.0351,0.0354,0.0319,0.0313,0.0306,0.0295,0.0285,0.0282,0.028,0.0263,0.0265,0.0266,0,0,0,0,0,0,0.0232,0.0233,0.0255,0.0259,0.0266,0.0316,0.0304,0.0313,0.0323,0.0324,0.0323,0.0352,0.032,0.0311,0.0296,0.0291,0.028,0.0277,0.0261,0.0263,0.0265,0.0247,0,0,0,0,0,0,0.0231,0.0231,0.0222,0.0257,0.0265,0.0269,0.0304,0.0314,0.033,0.0335,0.0323,0.032,0.032,0.0301,0.0292,0.0286,0.0274,0.0259,0.0262,0.0265,0.0246,0.0249,0.0251,0,0,0,0,0,0.0229,0.0239,0.022,0.0223,0.0248,0.0269,0.0276,0.0316,0.0329,0.0328,0.0341,0.032,0.0316,0.0299,0.0288,0.028,0.0257,0.0261,0.0264,0.0244,0.0248,0.0251,0,0,0,0,0,0,0.024,0.0246,0.0227,0.0237,0.0237,0.0279,0.03,0.0306,0.0317,0.0322,0.0319,0.0315,0.0312,0.0302,0.0284,0.0295,0.029,0.0292,0.0279,0.0282,0.0284,0.0288,0.0271,0,0,0,0,0,0.0227,0.0233,0.0228,0.0237,0.0233,0.0252,0.0267,0.0279,0.0297,0.0304,0.0293,0.0301,0.0319,0.0303,0.031,0.0284,0.0273,0.0285,0.0287,0.0289,0.0291,0.0286,0.0287,0.0278,0.0278,0.0278,0,0,0.0243,0.0243,0.025,0.0239,0.0248,0.0246,0.0264,0.0281,0.0283,0.0288,0.0285,0.03,0.032,0.0322,0.0318,0.0305,0.0285,0.0294,0.0295,0.0296,0.0289,0.029,0.029,0.0281,0.028,0.028,0,0,0.0281,0.0258,0.0269,0.0262,0.0259,0.0254,0.0249,0.0256,0.0262,0.0245,0.0286,0.0307,0.0278,0.0323,0.0338,0.0355,0.0308,0.0346,0.0338,0.0332,0.0332,0.0331,0.0299,0.0296,0.0334,0.0334,0.0334,0,0.0279,0.0293,0.0278,0.0279,0.0282,0.025,0.0252,0.0248,0.025,0.0263,0.0239,0.0286,0.0292,0.0346,0.0361,0.0358,0.0327,0.0315,0.0331,0.0331,0.0331,0.0298,0.0294,0.0334,0.0334,0.0334,0.0334,0,0.0336,0.0325,0.0336,0.0308,0.03,0.0303,0.0275,0.0259,0.0238,0.0246,0.027,0.0286,0.0322,0.0328,0.0337,0.0361,0.0329,0.0339,0.0311,0.0329,0.0294,0.0291,0.0333,0.0334,0.0334,0.0334,0,0,0.0349,0.0367,0.0365,0.0356,0.0314,0.0317,0.0296,0.0288,0.0302,0.0272,0.03,0.0331,0.0339,0.0361,0.0381,0.0366,0.0334,0.0333,0.0333,0.0279,0.0278,0.0246,0.0238,0.0321,0.0321,0.0321,0.0245,0,0.0375,0.0404,0.0401,0.0398,0.0386,0.0352,0.0345,0.0335,0.0311,0.032,0.0337,0.0368,0.0351,0.0369,0.0352,0.0361,0.0327,0.0351,0.0289,0.0287,0.0237,0.0236,0.0251,0.0184,0.0242,0.0241,0.0241,0,0.0401,0.0415,0.0435,0.0431,0.0427,0.0426,0.041,0.0401,0.0401,0.0391,0.0402,0.0405,0.0422,0.0386,0.0359,0.0361,0.0312,0.0289,0.0286,0.0262,0.0249,0.0183,0.0176,0.0108,0.0236,0.0236,0.0237,0,0.0399,0.0424,0.0446,0.0445,0.0437,0.0451,0.0446,0.0437,0.0448,0.0441,0.0454,0.0449,0.0465,0.0399,0.0349,0.0339,0.0287,0.0282,0.0201,0.0197,0.0206,0.0203,0.0112,0.0235,0.0235,0.0235,0.0236,0,0.0387,0.0387,0.0463,0.0461,0.0506,0.0483,0.0511,0.0506,0.0512,0.0548,0.0505,0.0536,0.0461,0.0426,0.0349,0.0264,0.0287,0.0194,0.0179,0.0199,0.0197,0.0136,0.0097,0.0233,0.0233,0.0234,0.0234,0,0.0335,0.0367,0.0406,0.047,0.0494,0.0523,0.0564,0.0585,0.058,0.0618,0.0622,0.0604,0.0549,0.0458,0.0368,0.0288,0.0143,0.0161,0.0173,0.016,0.0013,-0.0027,-0.0186,-0.0234,0.005,0.0049,0.0048,0,0.0294,0.0307,0.0452,0.0487,0.0515,0.0563,0.0595,0.0612,0.0636,0.0674,0.0705,0.0669,0.0671,0.0511,0.0333,0.0167,0.0098,0.0076,0.0077,-0.0003,-0.0058,-0.0126,-0.0158,0.0072,0.0071,0.0071,0.007,0,0.0201,0.0286,0.0363,0.0487,0.0544,0.0617,0.0672,0.0714,0.0734,0.0791,0.0852,0.0866,0.07,0.0574,0.033,0.0194,0.0008,0.0057,-0.0014,-0.0045,-0.0134,-0.0183,0.0108,0.0065,0.0065,0.0066,0.0066,0.0066,0.0182,0.0235,0.0368,0.048,0.0558,0.065,0.0719,0.0788,0.0866,0.0973,0.0982,0.1058,0.0855,0.0525,0.0304,-0.0052,-0.0068,-0.0102,-0.0146,-0.021,-0.025,0.0009,-0.0054,-0.0054,-0.0054,-0.0054,-0.0055,0,0.0161,0.0217,0.0322,0.0471,0.0571,0.0625,0.075,0.0834,0.0957,0.1091,0.118,0.1174,0.091,0.0583,0.01,-0.0162,-0.0294,-0.0283,-0.035,-0.0374,-0.0122,-0.0111,-0.0201,-0.0201,-0.0201,-0.0201,-0.0201,-0.0201,0.0134,0.021,0.028,0.0424,0.054,0.0681,0.0771,0.0924,0.1058,0.126,0.1367,0.1437,0.1225,0.0412,-0.0155,-0.0303,-0.0487,-0.0546,-0.0624,-0.0409,-0.0394,-0.038,-0.0378,-0.0523,-0.0523,-0.0852,-0.0855,-0.0857]}],[{"header":{"parameterUnit":"m.s-1","parameterCategory":2,"la1":30.2991,"la2":30.254,"lo1":-89.0895,"lo2":-89.0444,"dy":0.0017,"dx":0.0017,"nx":28,"ny":28,"refTime":"2026-02-05T09:00:00:Z","depth":"2","parameterNumber":2,"parameterNumberName":"U-component_of_CURRENTS"},"data":[0,0,0,0,0,0,0,0,0,0,0,0,0,0,0,0,0,0,0,0,0,0,0,0,0,0,0,0,0,0,0,0,0,0,0,0,0,0,0,0,0,0,0,0,0,0,0,0,0,0,0,0,0,0,0,0,0,0,-0.0705,-0.0702,0,-0.0521,-0.052,-0.0519,-0.0425,-0.0424,-0.0422,-0.0421,-0.0259,-0.0256,-0.0253,0,0,0,0,0,0,0,0,0,0,0,0,0,-0.1102,-0.1096,-0.0705,-0.0702,-0.0698,-0.0521,-0.052,-0.0518,-0.0425,-0.0423,-0.0422,-0.0421,-0.026,-0.0256,-0.0253,0,0,0,0,0,0,0,0,0,0,0,0,0,-0.0937,-0.1094,-0.0706,-0.0621,-0.061,-0.0521,-0.052,-0.0518,-0.0425,-0.0423,-0.0422,-0.042,-0.0261,-0.0257,-0.0252,-0.026,0,0,-0.0238,-0.0236,0,0,0,0,0,0,0,0,-0.0947,-0.0924,-0.0637,-0.0626,-0.0614,-0.0483,-0.0599,-0.0428,-0.0426,-0.0509,-0.0421,-0.0419,-0.0329,-0.0318,-0.0306,-0.0253,-0.0246,-0.0237,-0.0234,-0.0232,-0.0231,0,0,0,0,0,0,0,-0.0958,-0.0932,-0.0645,-0.0633,-0.0619,-0.0634,-0.0609,-0.0568,-0.0442,-0.0502,-0.0491,-0.0451,-0.0324,-0.0311,-0.0301,-0.0243,-0.0237,-0.0233,-0.023,-0.0228,-0.0069,-0.0068,0,0,0,0,0,0,-0.0949,-0.0942,-0.0651,-0.0638,-0.0765,-0.0627,-0.06,-0.0537,-0.0442,-0.0421,-0.0453,-0.0447,-0.032,-0.0307,-0.0295,-0.0113,-0.0232,-0.0228,-0.0225,-0.0071,-0.0069,-0.0068,0,0,0,0,0,0,-0.0958,-0.0924,-0.0658,-0.0778,-0.0743,-0.062,-0.0552,-0.0534,-0.042,-0.0402,-0.0384,-0.0344,-0.0318,-0.0302,-0.0219,-0.0113,-0.0226,-0.0221,-0.0072,-0.007,-0.0068,0.0132,0,0,0,0,0,0,-0.097,-0.0928,-0.0838,-0.0776,-0.0735,-0.059,-0.0552,-0.0532,-0.0398,-0.0387,-0.0305,-0.0294,-0.0315,-0.0226,-0.0214,-0.0109,-0.0218,-0.0074,-0.0071,-0.0069,0.0123,0.014,0.0155,0,0,0,0,0,-0.0985,-0.0883,-0.0834,-0.0796,-0.0628,-0.0588,-0.0571,-0.0488,-0.0393,-0.0371,-0.0302,-0.0291,-0.0201,-0.0221,-0.0207,-0.0097,-0.0075,-0.0072,-0.0069,0.0116,0.0137,0.0155,0,0,0,0,0,0,-0.0913,-0.086,-0.0807,-0.066,-0.0617,-0.0567,-0.0497,-0.0424,-0.0345,-0.0343,-0.0267,-0.0255,-0.0173,-0.0166,-0.0187,-0.0056,-0.0137,-0.0131,-0.0001,0.0019,0.0034,-0.0216,-0.0214,0,0,0,0,0,-0.0875,-0.0906,-0.0765,-0.0701,-0.0616,-0.0532,-0.0472,-0.0469,-0.0403,-0.036,-0.0257,-0.0199,-0.0167,-0.0092,-0.0113,0.001,-0.0084,0.008,0.0096,0.011,-0.0091,-0.0042,-0.004,-0.0057,-0.0057,-0.0057,0,0,-0.0841,-0.0832,-0.0825,-0.0709,-0.0644,-0.0595,-0.0494,-0.0458,-0.0455,-0.0362,-0.0245,-0.0165,-0.0144,-0.0065,-0.0016,-0.0012,0.0084,0.0114,0.0127,-0.0088,-0.0039,-0.0037,-0.0036,-0.0055,-0.0056,-0.0056,0,0,-0.0926,-0.0744,-0.0809,-0.0744,-0.0691,-0.064,-0.059,-0.047,-0.0413,-0.0339,-0.0268,-0.0175,-0.002,-0.0023,0.0003,0.0085,0.0119,0.0216,0.017,0.0232,0.0232,0.023,0.0196,0.0189,0.029,0.0291,0.0291,0,-0.0953,-0.0885,-0.0812,-0.0821,-0.0728,-0.0629,-0.0589,-0.0559,-0.0453,-0.0391,-0.0317,-0.0124,-0.0082,-0.0004,0.0019,0.0108,0.0157,0.0133,0.0252,0.0248,0.0242,0.0207,0.0197,0.0301,0.03,0.0299,0.0298,0,-0.1043,-0.095,-0.0944,-0.0945,-0.0855,-0.0821,-0.0713,-0.0633,-0.0494,-0.045,-0.0318,-0.0243,-0.0122,-0.0012,0.0018,0.0085,0.0137,0.0236,0.0208,0.0256,0.0217,0.0203,0.0315,0.0312,0.0309,0.0306,0,0,-0.1188,-0.1075,-0.1042,-0.0993,-0.0882,-0.0832,-0.0789,-0.0684,-0.06,-0.0512,-0.0375,-0.033,-0.0209,-0.0196,-0.0031,0.001,0.0067,0.0142,0.0141,0.0101,0.0204,0.0265,0.0255,0.032,0.0317,0.0314,0.0223,0,-0.1273,-0.1309,-0.1195,-0.1125,-0.1026,-0.088,-0.0811,-0.0754,-0.0627,-0.0483,-0.0439,-0.0293,-0.0279,-0.0104,-0.0089,0.0034,0.0027,0.0073,0.0148,0.0141,0.0193,0.0237,0.0286,0.0213,0.0209,0.0206,0.0204,0,-0.1196,-0.1307,-0.1268,-0.1107,-0.1028,-0.0986,-0.0756,-0.0717,-0.0586,-0.0477,-0.0381,-0.0274,-0.0241,-0.0184,-0.0158,-0.0053,-0.0017,0.003,0.0036,-0.006,0.0171,0.0143,0.0186,0.0179,0.0181,0.0183,0.0185,0,-0.1184,-0.116,-0.1152,-0.1111,-0.1047,-0.0959,-0.085,-0.0691,-0.061,-0.0445,-0.0341,-0.0276,-0.0168,-0.016,-0.011,-0.0049,-0.0089,0.0043,0.0054,0.006,-0.0012,-0.0007,-0.0071,-0.0071,-0.0071,-0.007,-0.007,0,-0.1137,-0.1035,-0.114,-0.1175,-0.1074,-0.0966,-0.081,-0.0674,-0.054,-0.043,-0.0322,-0.0225,-0.0136,-0.0099,-0.0112,-0.0095,-0.0086,-0.0091,0.0022,0.0074,0.0087,-0.0063,-0.0061,-0.0074,-0.0073,-0.0072,-0.0072,0,-0.0911,-0.1004,-0.0949,-0.1042,-0.1047,-0.0904,-0.0761,-0.0674,-0.054,-0.0387,-0.0324,-0.0178,-0.0075,-0.0061,-0.001,-0.0056,-0.0061,-0.007,-0.0075,0.0035,0.0022,0.0036,-0.0095,-0.0094,-0.0093,-0.0093,-0.0092,0,-0.0798,-0.0781,-0.089,-0.091,-0.0917,-0.0816,-0.0767,-0.064,-0.056,-0.0363,-0.0298,-0.0142,-0.0057,-0.0028,0.0037,0.0008,-0.0024,-0.0024,0.0005,-0.0115,0.001,0.0023,0.0035,0.0019,0.0021,0.0022,0.0023,0,-0.0622,-0.0588,-0.0668,-0.0794,-0.0761,-0.0713,-0.0633,-0.0603,-0.0459,-0.036,-0.0208,-0.0141,-0.0014,0.0067,0.0073,0.0035,-0.0005,-0.0,-0.0082,0.004,-0.0006,0.0118,0.0126,0.0034,0.0032,0.0032,0.0031,0.0031,-0.0491,-0.035,-0.0537,-0.0529,-0.0569,-0.0584,-0.0522,-0.0493,-0.0388,-0.0215,-0.0197,-0.0039,-0.0021,0.0104,0.0098,0.0159,0.0105,0.0052,0.0048,0.0042,0.0093,0.0056,0.0108,0.0107,0.0107,0.0106,0.0106,0,-0.0439,-0.0266,-0.0303,-0.0368,-0.0421,-0.0459,-0.0456,-0.0442,-0.0336,-0.0135,-0.004,0.0023,0.0083,0.0169,0.0303,0.0241,0.0227,0.0211,0.021,0.0198,0.0188,0.0247,0.0302,0.0303,0.0304,0.0305,0,0,-0.0426,-0.0346,-0.0278,-0.0287,-0.0319,-0.035,-0.0329,-0.0299,-0.0196,-0.0051,0.0137,0.0144,0.019,0.0289,0.0246,0.0343,0.0275,0.0329,0.0167,0.0159,0.0151,0.0083,0.016,0,0,0,0,0]},{"header":{"parameterUnit":"m.s-1","parameterCategory":2,"la1":30.2991,"la2":30.254,"lo1":-89.0895,"lo2":-89.0444,"dy":0.0017,"dx":0.0017,"nx":28,"ny":28,"refTime":"2026-02-05T09:00:00:Z","depth":"2","parameterNumber":3,"parameterNumberName":"V-component_of_CURRENTS"},"data":[0,0,0,0,0,0,0,0,0,0,0,0,0,0,0,0,0,0,0,0,0,0,0,0,0,0,0,0,0,0,0,0,0,0,0,0,0,0,0,0,0,0,0,0,0,0,0,0,0,0,0,0,0,0,0,0,0,0,-0.009,-0.0091,0,-0.0141,-0.0141,-0.0141,-0.0084,-0.0082,-0.008,-0.0079,-0.0039,-0.004,-0.004,0,0,0,0,0,0,0,0,0,0,0,0,0,0.0035,0.0033,-0.0089,-0.0091,-0.0092,-0.0141,-0.0141,-0.0141,-0.0084,-0.0082,-0.008,-0.0078,-0.0039,-0.0039,-0.004,0,0,0,0,0,0,0,0,0,0,0,0,0,-0.0012,0.0033,-0.0089,-0.0073,-0.0073,-0.0141,-0.0141,-0.0141,-0.0084,-0.0082,-0.0079,-0.0077,-0.0039,-0.0039,-0.004,-0.0094,0,0,-0.0042,-0.0043,0,0,0,0,0,0,0,0,-0.001,-0.0016,-0.0075,-0.0075,-0.0074,-0.0108,-0.0083,-0.0123,-0.0085,-0.0074,-0.0079,-0.0076,-0.0059,-0.0058,-0.0067,-0.0093,-0.0091,-0.0042,-0.0043,-0.0043,-0.0043,0,0,0,0,0,0,0,-0.0006,-0.0014,-0.0104,-0.0076,-0.0076,-0.0072,-0.0075,-0.009,-0.0074,-0.0075,-0.0072,-0.0088,-0.0057,-0.0066,-0.0065,-0.009,-0.0042,-0.0043,-0.0044,-0.0044,-0.0064,-0.0064,0,0,0,0,0,0,-0.0014,-0.0011,-0.0103,-0.0106,-0.0041,-0.0076,-0.008,-0.0095,-0.0076,-0.0073,-0.009,-0.0085,-0.0066,-0.0064,-0.0063,-0.0066,-0.0043,-0.0044,-0.0044,-0.0064,-0.0064,-0.0064,0,0,0,0,0,0,-0.0011,-0.0021,-0.0101,-0.0064,-0.0074,-0.0081,-0.0099,-0.0098,-0.0092,-0.0089,-0.0082,-0.0084,-0.0064,-0.0062,-0.0045,-0.0066,-0.0044,-0.0045,-0.0064,-0.0064,-0.0064,-0.0109,0,0,0,0,0,0,-0.0007,-0.002,-0.003,-0.0065,-0.0077,-0.0101,-0.0102,-0.0101,-0.0109,-0.0102,-0.0083,-0.0078,-0.0062,-0.0044,-0.0046,-0.0066,-0.0045,-0.0064,-0.0064,-0.0064,-0.0108,-0.0111,-0.0114,0,0,0,0,0,-0.0002,-0.0012,-0.003,-0.0041,-0.0091,-0.0101,-0.0104,-0.0099,-0.0111,-0.0089,-0.0083,-0.0077,-0.0047,-0.0045,-0.0047,-0.0068,-0.0063,-0.0064,-0.0064,-0.0106,-0.011,-0.0114,0,0,0,0,0,0,0.0049,-0.0009,-0.0028,-0.0053,-0.0065,-0.0092,-0.0093,-0.0104,-0.009,-0.0083,-0.0082,-0.0075,-0.0071,-0.0061,-0.0059,-0.0071,-0.0054,-0.0055,-0.0086,-0.009,-0.0093,-0.0105,-0.0046,0,0,0,0,0,0.0045,0.0026,-0.0021,-0.0032,-0.0052,-0.0081,-0.009,-0.0082,-0.0086,-0.0077,-0.0091,-0.0088,-0.0082,-0.0074,-0.007,-0.0082,-0.0092,-0.0093,-0.0096,-0.0099,-0.0109,-0.0135,-0.0142,-0.0065,-0.0065,-0.0065,0,0,0.0065,0.0027,0.002,-0.0023,-0.0046,-0.0078,-0.0076,-0.0078,-0.0095,-0.0079,-0.0113,-0.0105,-0.0087,-0.009,-0.0089,-0.0078,-0.0128,-0.0099,-0.0102,-0.011,-0.0136,-0.0144,-0.0151,-0.0065,-0.0065,-0.0065,0,0,0.0095,0.0053,0.0042,0.0013,-0.0023,-0.0051,-0.0054,-0.0096,-0.0097,-0.0115,-0.0116,-0.0122,-0.0124,-0.0127,-0.0121,-0.0144,-0.0146,-0.0134,-0.016,-0.0186,-0.0193,-0.0199,-0.0234,-0.0243,-0.0132,-0.0132,-0.0132,0,0.0137,0.0085,0.0047,0.0013,-0.0021,-0.0048,-0.0072,-0.009,-0.0117,-0.0126,-0.0115,-0.0143,-0.0147,-0.0152,-0.0162,-0.0156,-0.0164,-0.015,-0.0192,-0.0199,-0.0205,-0.0238,-0.0248,-0.0135,-0.0134,-0.0134,-0.0134,0,0.0144,0.0091,0.0079,0.001,-0.0021,-0.0034,-0.009,-0.0114,-0.014,-0.0159,-0.0168,-0.0171,-0.0179,-0.019,-0.0187,-0.0227,-0.0218,-0.0199,-0.0189,-0.0216,-0.0249,-0.0258,-0.0138,-0.0137,-0.0136,-0.0136,0,0,0.0252,0.0121,0.0114,0.0068,-0.0025,-0.0036,-0.0098,-0.0138,-0.0155,-0.0183,-0.0197,-0.0226,-0.0226,-0.0222,-0.0222,-0.0256,-0.0329,-0.0249,-0.0249,-0.0294,-0.0388,-0.0285,-0.0285,-0.0308,-0.031,-0.0311,-0.04,0,0.0273,0.0229,0.0138,0.0074,0.0023,-0.0053,-0.01,-0.0138,-0.0166,-0.019,-0.02,-0.02,-0.0233,-0.0218,-0.027,-0.0296,-0.0352,-0.0307,-0.0346,-0.0348,-0.0261,-0.0291,-0.0276,-0.0344,-0.0408,-0.041,-0.0411,0,0.0268,0.0241,0.0205,0.0083,0.0059,0.0035,-0.0036,-0.008,-0.0133,-0.015,-0.0174,-0.0177,-0.0231,-0.0239,-0.0341,-0.0302,-0.0367,-0.0399,-0.0402,-0.0296,-0.026,-0.0323,-0.0358,-0.0426,-0.0425,-0.0424,-0.0423,0,0.033,0.025,0.0239,0.0201,0.0091,0.008,0.0035,-0.0038,-0.0063,-0.0105,-0.0101,-0.0167,-0.0166,-0.0257,-0.0337,-0.0342,-0.0432,-0.0442,-0.0421,-0.0415,-0.0406,-0.0394,-0.0542,-0.0542,-0.0542,-0.0541,-0.0541,0,0.0325,0.0274,0.0296,0.027,0.0282,0.0174,0.0161,0.01,0.0047,0.0041,-0.0047,-0.0037,-0.0169,-0.0225,-0.0327,-0.0383,-0.043,-0.0438,-0.0429,-0.0418,-0.0407,-0.0472,-0.0463,-0.0545,-0.0544,-0.0543,-0.0543,0,0.0275,0.0292,0.0276,0.0278,0.0287,0.0303,0.0245,0.0234,0.0173,0.0168,0.0166,0.0059,-0.0021,-0.0145,-0.0285,-0.0336,-0.0416,-0.0434,-0.0408,-0.0393,-0.0401,-0.0393,-0.0439,-0.0436,-0.0434,-0.0431,-0.043,0,0.0215,0.0218,0.032,0.0395,0.0396,0.0412,0.0408,0.0317,0.0307,0.0246,0.0267,0.0186,0.0145,-0.0013,-0.0149,-0.0296,-0.0359,-0.0345,-0.0354,-0.0402,-0.039,-0.0386,-0.0382,-0.0387,-0.0385,-0.0383,-0.0382,0,0.0107,0.0194,0.0251,0.0435,0.0511,0.0527,0.0534,0.0545,0.0452,0.0455,0.0464,0.0437,0.0268,0.0114,-0.0075,-0.0155,-0.0314,-0.031,-0.0387,-0.0374,-0.0348,-0.0337,-0.0336,-0.0368,-0.0369,-0.037,-0.0371,-0.0372,0.0119,0.0153,0.0329,0.0478,0.0601,0.0676,0.0693,0.0689,0.0696,0.0646,0.0574,0.0497,0.0256,0.0021,-0.0097,-0.017,-0.0188,-0.0256,-0.0264,-0.0274,-0.0211,-0.0177,-0.0156,-0.0156,-0.0156,-0.0156,-0.0156,0,0.0174,0.02,0.0335,0.057,0.0726,0.0752,0.0797,0.0773,0.082,0.0734,0.0664,0.0393,0.0209,0.0033,-0.0055,-0.0141,-0.018,-0.0165,-0.0245,-0.0256,-0.0267,-0.0208,-0.015,-0.0151,-0.0151,-0.0151,0,0,0.0227,0.0323,0.0354,0.0636,0.0804,0.0936,0.0978,0.0927,0.0873,0.0759,0.0675,0.0369,0.0225,0.0077,-0.007,-0.0067,-0.0119,-0.0054,-0.0044,-0.0128,-0.0138,-0.03,-0.0217,0,0,0,0,0]}],[{"header":{"parameterUnit":"m.s-1","parameterCategory":2,"la1":30.2991,"la2":30.254,"lo1":-89.0895,"lo2":-89.0444,"dy":0.0017,"dx":0.0017,"nx":28,"ny":28,"refTime":"2026-02-05T09:00:00:Z","depth":"4","parameterNumber":2,"parameterNumberName":"U-component_of_CURRENTS"},"data":[0,0,0,0,0,0,0,0,0,0,0,0,0,0,0,0,0,0,0,0,0,0,0,0,0,0,0,0,0,0,0,0,0,0,0,0,0,0,0,0,0,0,0,0,0,0,0,0,0,0,0,0,0,0,0,0,0,0,-0.0548,-0.0549,0,-0.0703,-0.0705,-0.0708,-0.0816,-0.0816,-0.0816,-0.0816,-0.0912,-0.0914,-0.0916,0,0,0,0,0,0,0,0,0,0,0,0,0,-0.0552,-0.0551,-0.0548,-0.0549,-0.055,-0.0702,-0.0705,-0.0708,-0.0816,-0.0816,-0.0816,-0.0816,-0.0911,-0.0914,-0.0917,0,0,0,0,0,0,0,0,0,0,0,0,0,-0.062,-0.0551,-0.0548,-0.0616,-0.0623,-0.0702,-0.0705,-0.0709,-0.0816,-0.0816,-0.0816,-0.0816,-0.091,-0.0913,-0.0917,-0.0937,0,0,-0.0928,-0.093,0,0,0,0,0,0,0,0,-0.0616,-0.0621,-0.0605,-0.0612,-0.062,-0.0733,-0.0742,-0.078,-0.0816,-0.0751,-0.0816,-0.0816,-0.0841,-0.085,-0.0892,-0.0942,-0.0946,-0.0929,-0.0931,-0.0932,-0.0934,0,0,0,0,0,0,0,-0.0611,-0.0616,-0.0618,-0.0606,-0.0615,-0.071,-0.0718,-0.0751,-0.0799,-0.0757,-0.0763,-0.0767,-0.0846,-0.0888,-0.0894,-0.0947,-0.0929,-0.0932,-0.0934,-0.0936,-0.1072,-0.1073,0,0,0,0,0,0,-0.0564,-0.061,-0.0613,-0.0621,-0.0609,-0.0708,-0.0718,-0.0703,-0.08,-0.0813,-0.0767,-0.0771,-0.0881,-0.089,-0.0898,-0.0986,-0.0932,-0.0936,-0.0938,-0.1071,-0.1072,-0.1074,0,0,0,0,0,0,-0.0563,-0.0562,-0.0606,-0.0615,-0.0626,-0.0705,-0.0689,-0.0706,-0.0765,-0.0807,-0.082,-0.0809,-0.0882,-0.0892,-0.096,-0.0987,-0.0938,-0.0941,-0.1069,-0.1071,-0.1073,-0.1123,0,0,0,0,0,0,-0.0562,-0.056,-0.056,-0.061,-0.0623,-0.0643,-0.0689,-0.0708,-0.0762,-0.0771,-0.0846,-0.0855,-0.0883,-0.0955,-0.0964,-0.0991,-0.0944,-0.1067,-0.107,-0.1073,-0.1119,-0.1126,-0.1132,0,0,0,0,0,-0.0562,-0.0566,-0.0559,-0.056,-0.061,-0.0642,-0.0659,-0.0724,-0.0764,-0.0782,-0.0858,-0.0854,-0.0977,-0.096,-0.097,-0.0999,-0.1066,-0.1069,-0.1072,-0.1116,-0.1125,-0.1132,0,0,0,0,0,0,-0.0598,-0.0578,-0.0571,-0.0575,-0.0593,-0.0657,-0.0694,-0.0731,-0.0811,-0.0834,-0.0883,-0.0897,-0.0973,-0.0973,-0.0953,-0.1045,-0.1016,-0.1021,-0.1046,-0.1054,-0.106,-0.103,-0.0947,0,0,0,0,0,-0.0588,-0.0571,-0.0573,-0.058,-0.0583,-0.0639,-0.0672,-0.0706,-0.0768,-0.0807,-0.0869,-0.093,-0.0992,-0.1012,-0.1066,-0.1109,-0.1088,-0.113,-0.1136,-0.1142,-0.1124,-0.1179,-0.1189,-0.1084,-0.1084,-0.1084,0,0,-0.0604,-0.0593,-0.0586,-0.0584,-0.0612,-0.0635,-0.0663,-0.0706,-0.0741,-0.08,-0.0898,-0.0966,-0.1014,-0.1085,-0.1113,-0.1086,-0.1148,-0.1146,-0.115,-0.1129,-0.1183,-0.1193,-0.1202,-0.1087,-0.1086,-0.1086,0,0,-0.0628,-0.0611,-0.0602,-0.061,-0.0627,-0.0655,-0.0661,-0.0726,-0.0766,-0.0849,-0.0916,-0.1006,-0.1083,-0.1139,-0.117,-0.1236,-0.1196,-0.1239,-0.1233,-0.1288,-0.1297,-0.1304,-0.1231,-0.1232,-0.1224,-0.1225,-0.1225,0,-0.0654,-0.0632,-0.0615,-0.0619,-0.064,-0.0659,-0.0682,-0.0719,-0.081,-0.0847,-0.0877,-0.1058,-0.1114,-0.1196,-0.1229,-0.1253,-0.1226,-0.1204,-0.1296,-0.1304,-0.1311,-0.1235,-0.1235,-0.1227,-0.1227,-0.1227,-0.1226,0,-0.0662,-0.0659,-0.0664,-0.0656,-0.0681,-0.0702,-0.0724,-0.0768,-0.0829,-0.0878,-0.0988,-0.1088,-0.1189,-0.1222,-0.125,-0.1325,-0.1266,-0.1315,-0.1275,-0.1324,-0.124,-0.1239,-0.1231,-0.123,-0.1229,-0.1229,0,0,-0.0684,-0.0667,-0.0672,-0.0671,-0.0701,-0.0719,-0.0764,-0.0805,-0.0846,-0.0938,-0.1011,-0.1146,-0.1206,-0.1243,-0.1299,-0.1335,-0.1367,-0.1333,-0.1335,-0.1252,-0.1383,-0.1276,-0.1263,-0.1437,-0.1439,-0.144,-0.1282,0,-0.0697,-0.0696,-0.0701,-0.0732,-0.0732,-0.0763,-0.0804,-0.085,-0.0907,-0.0978,-0.1059,-0.1166,-0.1204,-0.1278,-0.1323,-0.1404,-0.1376,-0.1398,-0.1353,-0.1348,-0.1245,-0.1266,-0.1446,-0.1281,-0.1281,-0.1281,-0.1281,0,-0.0704,-0.0696,-0.0716,-0.0741,-0.0749,-0.0787,-0.085,-0.0889,-0.0961,-0.1013,-0.1106,-0.1175,-0.1278,-0.13,-0.1383,-0.1394,-0.1366,-0.138,-0.1376,-0.1258,-0.1243,-0.1237,-0.1279,-0.1279,-0.1279,-0.128,-0.128,0,-0.0696,-0.0715,-0.0728,-0.0737,-0.077,-0.0805,-0.0843,-0.0914,-0.0946,-0.1045,-0.108,-0.1208,-0.1278,-0.1328,-0.1365,-0.1389,-0.1389,-0.1442,-0.1268,-0.1254,-0.1375,-0.1369,-0.1418,-0.1418,-0.1418,-0.1419,-0.1419,0,-0.0691,-0.0702,-0.0726,-0.0723,-0.0763,-0.0806,-0.086,-0.0909,-0.0983,-0.0999,-0.1103,-0.1116,-0.1296,-0.1316,-0.134,-0.129,-0.1372,-0.124,-0.1229,-0.1388,-0.1386,-0.1369,-0.1365,-0.1413,-0.1414,-0.1415,-0.1416,0,-0.0668,-0.0681,-0.0693,-0.0731,-0.075,-0.0786,-0.0851,-0.0871,-0.0949,-0.0969,-0.1004,-0.1081,-0.1116,-0.1194,-0.1259,-0.1235,-0.1228,-0.1149,-0.1215,-0.1214,-0.1037,-0.1038,-0.0968,-0.0963,-0.0959,-0.0956,-0.0953,0,-0.0645,-0.0647,-0.0684,-0.0689,-0.0708,-0.0755,-0.0768,-0.0856,-0.0854,-0.0902,-0.0877,-0.0935,-0.0967,-0.0939,-0.1051,-0.1054,-0.1038,-0.0988,-0.1098,-0.1005,-0.1002,-0.1009,-0.1015,-0.0947,-0.0946,-0.0945,-0.0944,0,-0.0603,-0.063,-0.0629,-0.0628,-0.0649,-0.0652,-0.0666,-0.0674,-0.0732,-0.08,-0.0752,-0.0779,-0.0763,-0.0849,-0.0842,-0.0849,-0.1052,-0.0948,-0.0957,-0.106,-0.098,-0.0982,-0.0992,-0.093,-0.0932,-0.0933,-0.0934,0,-0.0578,-0.0575,-0.0567,-0.0571,-0.0562,-0.0522,-0.0564,-0.0537,-0.0566,-0.063,-0.0594,-0.0641,-0.0718,-0.0725,-0.0723,-0.0748,-0.0759,-0.0757,-0.0777,-0.0793,-0.0827,-0.0705,-0.0542,0,0,0,0,0,-0.0538,-0.0518,-0.0502,-0.0475,-0.0441,-0.0434,-0.0457,-0.0495,-0.0553,-0.0496,-0.0559,-0.0539,-0.0566,-0.0588,-0.0587,-0.0651,-0.0766,-0.0644,-0.0775,-0.0855,-0.0871,-0.0937,0,0,0,0,0,0,-0.051,-0.0493,-0.0479,-0.0365,-0.0316,-0.027,-0.0287,-0.0339,-0.0312,-0.0392,-0.0413,-0.0473,-0.0516,-0.0554,-0.0559,-0.0573,-0.0637,-0.069,-0.0687,-0.0846,-0.086,-0.0873,-0.0947,0,0,0,0,0]},{"header":{"parameterUnit":"m.s-1","parameterCategory":2,"la1":30.2991,"la2":30.254,"lo1":-89.0895,"lo2":-89.0444,"dy":0.0017,"dx":0.0017,"nx":28,"ny":28,"refTime":"2026-02-05T09:00:00:Z","depth":"4","parameterNumber":3,"parameterNumberName":"V-component_of_CURRENTS"},"data":[0,0,0,0,0,0,0,0,0,0,0,0,0,0,0,0,0,0,0,0,0,0,0,0,0,0,0,0,0,0,0,0,0,0,0,0,0,0,0,0,0,0,0,0,0,0,0,0,0,0,0,0,0,0,0,0,0,0,-0.0183,-0.0184,0,-0.0229,-0.023,-0.0231,-0.0249,-0.0248,-0.0248,-0.0248,-0.0225,-0.0225,-0.0224,0,0,0,0,0,0,0,0,0,0,0,0,0,-0.0155,-0.0155,-0.0183,-0.0184,-0.0184,-0.0229,-0.023,-0.0231,-0.0249,-0.0248,-0.0248,-0.0248,-0.0225,-0.0225,-0.0224,0,0,0,0,0,0,0,0,0,0,0,0,0,-0.0183,-0.0156,-0.0183,-0.0197,-0.0198,-0.0229,-0.023,-0.0231,-0.0249,-0.0248,-0.0248,-0.0247,-0.0225,-0.0225,-0.0224,-0.0232,0,0,-0.0223,-0.0223,0,0,0,0,0,0,0,0,-0.0181,-0.0184,-0.0194,-0.0196,-0.0197,-0.0231,-0.0212,-0.0227,-0.0249,-0.0232,-0.0248,-0.0247,-0.0219,-0.0219,-0.0234,-0.0231,-0.023,-0.0223,-0.0223,-0.0223,-0.0222,0,0,0,0,0,0,0,-0.0179,-0.0183,-0.0204,-0.0195,-0.0197,-0.0215,-0.0218,-0.0216,-0.0229,-0.0234,-0.0234,-0.0236,-0.022,-0.0234,-0.0233,-0.023,-0.0223,-0.0223,-0.0222,-0.0222,-0.0274,-0.0275,0,0,0,0,0,0,-0.0167,-0.0181,-0.0203,-0.0205,-0.0185,-0.0216,-0.022,-0.0223,-0.023,-0.0231,-0.0236,-0.0236,-0.0235,-0.0233,-0.0232,-0.0252,-0.0223,-0.0222,-0.0222,-0.0272,-0.0274,-0.0276,0,0,0,0,0,0,-0.0166,-0.0169,-0.0201,-0.0192,-0.0197,-0.0216,-0.022,-0.0224,-0.0236,-0.0233,-0.0232,-0.0243,-0.0235,-0.0233,-0.0257,-0.025,-0.0222,-0.0222,-0.027,-0.0273,-0.0275,-0.0284,0,0,0,0,0,0,-0.0165,-0.0168,-0.0177,-0.0191,-0.0197,-0.0209,-0.022,-0.0225,-0.0236,-0.0237,-0.0238,-0.0236,-0.0234,-0.0258,-0.0257,-0.0249,-0.0221,-0.0268,-0.0271,-0.0274,-0.0282,-0.0287,-0.0291,0,0,0,0,0,-0.0164,-0.0169,-0.0177,-0.018,-0.0204,-0.0208,-0.0213,-0.0227,-0.0237,-0.0237,-0.0266,-0.0236,-0.0275,-0.026,-0.0257,-0.0249,-0.0267,-0.027,-0.0274,-0.028,-0.0286,-0.0291,0,0,0,0,0,0,-0.0163,-0.0172,-0.0181,-0.0189,-0.0194,-0.021,-0.022,-0.0227,-0.0252,-0.0258,-0.0261,-0.0262,-0.0288,-0.0275,-0.0257,-0.0279,-0.0264,-0.0267,-0.0269,-0.0274,-0.0279,-0.025,-0.0221,0,0,0,0,0,-0.0167,-0.0173,-0.018,-0.0189,-0.0191,-0.0208,-0.0216,-0.022,-0.0239,-0.0249,-0.0256,-0.0274,-0.0303,-0.0293,-0.0317,-0.0315,-0.0297,-0.0311,-0.0316,-0.0319,-0.0298,-0.0295,-0.0296,-0.0288,-0.0288,-0.0288,0,0,-0.0171,-0.0176,-0.0182,-0.0189,-0.02,-0.0207,-0.0212,-0.0217,-0.0223,-0.0241,-0.0263,-0.0297,-0.0316,-0.0337,-0.0342,-0.0316,-0.0316,-0.0324,-0.0326,-0.0303,-0.0298,-0.0299,-0.0299,-0.029,-0.029,-0.0289,0,0,-0.018,-0.0185,-0.0196,-0.0195,-0.0202,-0.0208,-0.0207,-0.0221,-0.0226,-0.0248,-0.0285,-0.0316,-0.0332,-0.0352,-0.0363,-0.0401,-0.036,-0.0407,-0.0373,-0.0372,-0.0371,-0.037,-0.0354,-0.0352,-0.0383,-0.0383,-0.0383,0,-0.0187,-0.0202,-0.0198,-0.0204,-0.0212,-0.0207,-0.0219,-0.0219,-0.024,-0.0255,-0.0249,-0.0329,-0.0336,-0.0377,-0.0389,-0.0405,-0.0393,-0.0347,-0.0373,-0.0372,-0.0371,-0.0355,-0.0352,-0.0384,-0.0384,-0.0383,-0.0383,0,-0.0202,-0.0215,-0.0218,-0.0227,-0.023,-0.0235,-0.0229,-0.0237,-0.0243,-0.0252,-0.0296,-0.0324,-0.0364,-0.0373,-0.0382,-0.0393,-0.0386,-0.0398,-0.0349,-0.0372,-0.0354,-0.0351,-0.0385,-0.0385,-0.0384,-0.0384,0,0,-0.0224,-0.023,-0.0234,-0.0251,-0.0244,-0.0253,-0.0252,-0.0266,-0.0286,-0.0283,-0.0315,-0.0348,-0.0362,-0.0377,-0.04,-0.0373,-0.0357,-0.0364,-0.0364,-0.0328,-0.0339,-0.0336,-0.0332,-0.037,-0.037,-0.0369,-0.033,0,-0.0246,-0.0266,-0.0262,-0.0289,-0.0304,-0.0295,-0.0304,-0.0308,-0.0313,-0.0335,-0.0337,-0.0383,-0.0362,-0.0395,-0.0364,-0.0375,-0.0349,-0.0366,-0.0338,-0.0336,-0.0315,-0.0328,-0.0368,-0.0328,-0.0327,-0.0326,-0.0326,0,-0.0272,-0.0285,-0.0313,-0.0339,-0.0346,-0.0358,-0.0387,-0.039,-0.0397,-0.0404,-0.0414,-0.0426,-0.041,-0.0395,-0.0352,-0.0363,-0.0343,-0.0328,-0.0327,-0.031,-0.0328,-0.0302,-0.032,-0.032,-0.0321,-0.0321,-0.0322,0,-0.0306,-0.0328,-0.0357,-0.036,-0.0379,-0.0399,-0.0411,-0.0422,-0.0445,-0.0452,-0.0478,-0.0454,-0.0459,-0.0412,-0.036,-0.0359,-0.0305,-0.0312,-0.0289,-0.0289,-0.0295,-0.0296,-0.0283,-0.0283,-0.0283,-0.0283,-0.0283,0,-0.0333,-0.0363,-0.038,-0.0396,-0.0445,-0.044,-0.0494,-0.0497,-0.0521,-0.0546,-0.0522,-0.0536,-0.046,-0.0423,-0.0367,-0.0305,-0.0311,-0.0273,-0.0277,-0.0304,-0.0307,-0.0293,-0.0295,-0.0282,-0.0282,-0.0282,-0.0283,0,-0.0369,-0.0373,-0.0416,-0.0447,-0.0463,-0.0498,-0.0551,-0.0583,-0.0595,-0.0626,-0.0633,-0.0595,-0.0519,-0.0449,-0.037,-0.0328,-0.0272,-0.0261,-0.0281,-0.0289,-0.0252,-0.0255,-0.0216,-0.0216,-0.0216,-0.0215,-0.0215,0,-0.0382,-0.0408,-0.0462,-0.0488,-0.0507,-0.0559,-0.0595,-0.0621,-0.0636,-0.0656,-0.0658,-0.0617,-0.0573,-0.0444,-0.037,-0.0263,-0.026,-0.024,-0.0241,-0.0236,-0.0244,-0.0248,-0.0251,-0.0214,-0.0214,-0.0214,-0.0214,0,-0.0412,-0.0438,-0.0471,-0.0524,-0.0567,-0.0625,-0.0659,-0.0683,-0.0691,-0.0718,-0.0671,-0.0621,-0.0538,-0.0423,-0.0349,-0.0279,-0.025,-0.0235,-0.0236,-0.0236,-0.0234,-0.0242,-0.0246,-0.0213,-0.0213,-0.0213,-0.0213,0,-0.0438,-0.0464,-0.05,-0.0546,-0.0601,-0.0644,-0.068,-0.0678,-0.0698,-0.0689,-0.067,-0.0598,-0.0546,-0.0434,-0.0366,-0.0289,-0.027,-0.026,-0.0258,-0.0259,-0.0285,-0.0289,-0.0278,0,0,0,0,0,-0.045,-0.0468,-0.0513,-0.0557,-0.0615,-0.0641,-0.069,-0.0711,-0.0718,-0.0678,-0.067,-0.0586,-0.0479,-0.0436,-0.0352,-0.0365,-0.0268,-0.027,-0.0258,-0.0205,-0.0207,-0.023,0,0,0,0,0,0,-0.0459,-0.0492,-0.0503,-0.0545,-0.0578,-0.0637,-0.0668,-0.0685,-0.0646,-0.0644,-0.057,-0.0566,-0.0443,-0.0503,-0.0342,-0.0326,-0.0312,-0.0223,-0.0222,-0.0205,-0.0206,-0.0207,-0.0231,0,0,0,0,0]}]]